Probability
0 0 0 0 0 0 0 0 0 0 0 0 0 0 0 0 0 0 0 0 0 0 0 0 0 0 0 0 0 0 0 0 0 0 0 0 0 0 0 0 0 0 0
1 0 0 0 1 1 0 0 0 0 0 0 0 0 0 0 0 0 0 0 0 0 0 0 0 0 0 0 0 0 0 0 0 0 0 0 0 0 0 0 0 0 0
2 1 0 1 2 2 1 0 0 0 0 0 0 0 0 0 0 0 0 0 0 0 0 0 0 0 0 0 0 0 0 0 0 0 0 0 0 0 0 0 0 0 0
4 3 3 3 4 3 1 0 0 0 0 0 0 0 0 0 0 0 0 0 0 0 0 0 0 0 0 0 0 0 0 0 0 0 0 0 0 0 0 0 0 0 0
6 5 6 7 7 5 3 2 1 1 0 0 0 0 0 0 0 0 0 0 0 0 0 0 0 0 0 0 0 0 0 0 0 0 0 0 0 0 0 0 0 0 0
7 7 7 9 10 8 6 4 3 2 1 0 0 0 0 0 0 0 0 0 0 0 0 0 0 0 0 0 0 0 0 0 0 0 0 0 0 0 0 0 0 0 0
10 8 8 10 10 9 7 6 4 3 1 0 0 0 0 0 0 0 0 0 0 0 0 0 0 0 0 0 0 0 0 0 0 0 0 0 0 0 0 0 0 0 0
17 13 10 9 9 8 7 6 5 4 2 1 0 0 0 0 0 0 0 0 0 0 0 0 0 0 0 0 0 0 0 0 0 0 0 0 0 0 0 0 0 0 0
23 19 14 11 9 8 7 7 6 4 2 1 0 0 0 0 0 0 0 0 0 0 0 0 0 0 0 0 0 0 0 0 0 0 0 0 0 0 0 0 0 0 0
24 22 18 15 12 11 9 8 7 5 3 1 0 0 0 0 0 0 0 0 0 0 0 0 0 0 0 0 0 0 0 0 0 0 0 0 0 0 0 0 0 0 0
22 20 20 18 16 15 12 9 7 6 4 3 1 0 0 0 0 0 0 0 0 0 0 0 0 0 0 0 0 0 0 0 0 0 0 0 0 0 0 0 0 0 0
20 19 19 20 19 17 13 10 8 6 6 5 3 1 0 0 0 0 0 0 0 0 0 0 0 0 0 0 0 0 0 0 0 0 0 0 0 0 0 0 0 0 0
23 22 21 21 19 16 13 10 8 7 7 6 4 2 1 0 0 0 0 0 0 0 0 0 0 0 0 0 0 0 0 0 0 0 0 0 0 0 0 0 0 0 0
29 28 25 22 18 15 12 9 7 7 8 7 5 3 1 0 0 0 0 0 0 0 0 0 0 0 0 0 0 0 0 0 0 0 0 0 0 0 0 0 0 0 0
34 31 26 21 16 13 11 8 6 7 8 8 6 3 1 0 0 0 0 0 0 0 0 0 0 0 0 0 0 0 0 0 0 0 0 0 0 0 0 0 0 0 0
32 30 25 19 16 13 11 9 6 6 7 7 6 3 1 1 0 0 0 0 0 0 0 0 0 0 0 0 0 0 0 0 0 0 0 0 0 0 0 0 0 0 0
30 29 25 20 18 17 13 10 9 8 8 7 5 3 3 2 1 0 0 0 0 0 0 0 0 0 0 0 0 0 0 0 0 0 0 0 0 0 0 0 0 0 0
36 34 30 27 25 21 16 12 11 11 10 8 5 3 4 4 2 0 0 0 0 0 0 0 0 0 0 0 0 0 0 0 0 0 0 0 0 0 0 0 0 0 0
45 42 39 38 33 26 19 14 13 13 10 8 5 3 3 4 3 1 1 1 0 0 0 0 0 0 0 0 0 0 0 0 0 0 0 0 0 0 0 0 0 0 0
52 48 45 44 41 34 26 20 17 14 9 7 5 3 2 2 3 2 1 1 0 0 0 0 0 0 0 0 0 0 0 0 0 0 0 0 0 0 0 0 0 0 0
55 52 49 46 45 41 33 25 20 15 11 10 10 7 4 3 3 3 3 2 1 0 0 0 0 0 0 0 0 0 0 0 0 0 0 0 0 0 0 0 0 0 0
56 56 53 48 46 42 35 27 20 15 12 13 14 11 8 6 4 4 3 3 2 1 1 0 0 0 0 0 0 0 0 0 0 0 0 0 0 0 0 0 0 0 0
56 56 53 48 45 42 36 27 19 14 12 14 15 14 12 9 5 4 4 3 3 2 1 0 0 0 0 0 0 0 0 0 0 0 0 0 0 0 0 0 0 0 0
54 53 50 47 43 39 34 27 21 15 12 14 15 14 12 9 6 4 4 3 3 3 1 0 0 0 0 0 0 0 0 0 0 0 0 0 0 0 0 0 0 0 0
49 49 47 44 40 35 29 25 21 15 12 13 13 11 9 7 5 6 6 4 3 2 1 0 1 0 0 0 0 0 0 0 0 0 0 0 0 0 0 0 0 0 0
45 45 44 41 37 32 26 23 19 15 11 11 11 9 7 6 5 7 8 6 3 1 0 0 1 0 0 0 0 0 0 0 0 0 0 0 0 0 0 0 0 0 0
Wind_Speed
10 11 18 18 18 18 18 18 17 17 17 17 17 17 17 17 17 16 16 15 15 15 15 15 15 15 15 16 16 17 17 17 17 17 17 16 16 17 17 17 16 12 17
14 14 19 18 18 18 18 17 17 17 16 16 16 16 16 16 16 15 15 15 14 14 15 15 15 15 15 15 16 17 17 16 16 17 17 15 16 16 16 16 15 11 17
17 14 17 18 19 18 18 17 17 16 16 16 16 16 15 15 15 15 15 14 14 14 14 14 14 14 14 15 15 16 16 16 16 16 15 8 10 16 16 16 16 16 16
17 13 15 20 19 19 18 17 17 16 16 15 15 15 15 15 15 14 14 14 14 14 14 13 14 14 14 14 13 14 14 15 16 15 7 6 8 15 16 16 16 15 15
15 12 15 21 20 19 19 17 16 16 16 15 15 15 14 14 14 14 14 14 13 13 13 13 13 13 12 12 12 11 11 13 14 11 6 6 6 13 15 15 15 15 14
14 12 15 21 20 19 19 18 17 16 16 15 15 14 14 14 14 14 14 13 13 13 13 12 12 12 11 11 10 9 10 13 11 7 6 5 5 12 15 14 14 14 14
13 11 14 20 20 19 19 18 17 16 16 15 15 14 14 14 14 14 14 13 13 12 12 11 11 10 10 9 9 8 10 13 8 6 5 5 6 12 13 14 13 13 13
16 12 13 20 20 19 19 18 17 17 16 15 15 14 14 14 14 13 13 13 12 12 11 10 10 9 8 8 8 8 9 12 10 8 6 5 9 11 13 13 12 12 12
15 13 10 11 15 19 19 18 18 17 16 15 15 14 14 14 13 13 13 12 12 11 10 9 8 8 7 7 6 7 8 13 7 5 8 5 9 12 13 12 12 12 12
12 11 10 9 9 9 12 18 18 17 16 15 15 15 14 14 13 13 11 11 11 10 9 9 8 6 6 6 6 7 10 11 5 5 4 6 11 12 13 12 12 11 11
12 9 10 9 8 8 8 14 15 16 15 14 12 15 12 6 6 7 10 11 11 10 9 8 7 6 5 4 6 8 8 4 5 3 3 9 12 13 12 12 11 11 11
15 12 10 10 10 9 9 8 5 7 7 6 5 6 4 4 4 6 9 11 10 9 8 7 5 4 3 2 4 6 3 5 4 3 4 11 12 13 12 12 11 11 10
17 15 12 11 11 9 6 7 4 4 4 5 6 6 4 4 3 3 3 4 4 6 3 3 2 1 1 2 2 3 4 4 3 3 5 11 11 12 12 12 11 11 10
17 16 14 12 11 9 7 7 5 4 4 4 5 6 4 3 3 3 2 2 2 1 2 1 1 1 1 2 4 5 5 3 3 3 5 12 11 12 12 12 11 11 10
16 16 15 13 11 10 8 7 7 6 6 6 5 5 6 5 5 4 3 3 3 2 2 2 2 2 2 3 4 6 6 6 5 4 4 12 12 11 12 12 11 11 10
16 16 15 14 12 11 9 7 7 7 6 6 5 6 7 5 5 4 4 3 3 3 3 3 3 2 2 2 4 6 6 6 5 5 3 6 11 10 11 11 11 11 11
17 16 15 14 12 12 10 9 7 7 6 6 5 6 7 6 6 5 4 4 3 3 3 2 2 2 2 2 3 5 5 5 5 5 5 3 4 9 10 11 11 11 11
15 15 15 14 13 12 10 8 6 6 7 6 5 5 7 7 7 5 4 4 3 3 3 3 2 2 2 2 2 3 3 4 5 5 4 4 3 4 7 10 10 10 11
15 16 15 12 13 11 9 7 7 6 6 5 5 5 5 6 6 5 4 3 4 3 3 3 2 2 2 2 2 2 2 3 4 6 5 5 5 4 3 7 10 10 11
13 14 14 12 12 10 7 5 5 5 5 5 5 5 6 5 6 5 4 4 4 3 2 2 3 2 2 2 2 1 1 2 3 4 5 5 5 6 5 5 4 6 10
12 12 13 12 11 9 7 6 6 5 5 4 4 6 6 5 6 5 4 4 4 4 4 4 3 3 1 2 2 1 2 1 2 3 3 4 5 6 5 5 4 3 4
12 12 12 11 11 10 7 6 4 5 4 4 4 5 6 6 6 6 5 5 5 4 4 4 3 2 1 2 3 2 1 2 2 2 2 4 5 4 5 7 5 5 4
12 13 12 11 11 10 8 6 4 3 3 3 4 4 6 7 6 5 6 5 5 5 4 4 4 4 2 1 2 4 3 3 2 2 2 3 4 4 4 5 6 6 6
11 11 10 11 10 9 9 9 9 7 6 6 5 5 5 7 7 6 6 6 5 4 5 4 4 3 4 2 1 1 2 4 3 1 2 2 3 4 5 5 6 6 6
10 10 9 10 10 9 9 10 10 7 5 4 4 6 6 5 7 7 7 6 6 5 5 5 4 4 3 3 3 1 1 1 2 3 2 2 2 3 4 5 4 4 6
8 8 8 9 9 10 10 10 10 9 8 7 7 7 6 4 5 7 7 6 6 5 5 5 5 5 4 4 3 2 2 2 2 3 3 3 3 3 3 4 4 5 5
Wind_Direction
150 154 149 141 135 129 124 119 116 113 110 108 107 107 107 108 110 111 112 112 112 111 111 110 110 110 110 111 112 113 114 114 115 115 114 114 114 113 112 110 108 106 108
147 152 148 143 138 133 129 125 122 119 116 113 112 111 111 112 112 113 113 113 113 112 111 111 112 112 111 112 113 114 114 114 113 113 113 113 114 114 114 111 111 112 111
143 148 147 144 140 136 133 130 127 125 122 119 117 117 116 116 116 116 117 117 115 115 114 113 114 114 114 115 116 117 117 115 112 110 107 102 110 114 115 113 112 111 111
142 144 146 145 142 139 137 135 133 131 128 125 123 122 121 120 120 120 119 119 119 118 117 116 116 116 116 116 117 118 118 118 115 110 100 97 108 115 115 115 115 115 115
140 142 149 147 144 142 140 139 138 136 134 132 130 128 126 124 123 122 122 122 121 121 120 118 118 117 117 116 116 117 120 122 117 105 94 89 101 117 117 117 117 117 116
139 142 150 147 146 145 144 143 142 141 139 137 135 133 130 128 127 125 125 125 124 124 122 120 119 118 117 116 116 116 119 122 112 105 102 100 104 118 119 119 119 119 118
138 143 149 149 149 148 147 146 145 144 142 141 138 136 134 133 132 130 129 128 128 127 126 125 123 121 119 116 112 110 123 126 119 112 109 107 114 121 122 122 123 122 122
143 144 148 151 151 150 150 149 148 146 146 145 142 141 139 138 137 135 133 133 132 131 131 131 128 127 122 115 107 104 122 134 126 123 117 117 124 124 125 124 125 125 124
143 143 145 151 152 153 152 152 151 150 149 147 146 145 143 142 140 139 137 137 137 138 138 138 135 132 125 116 107 105 116 132 123 130 131 128 132 132 130 129 128 129 128
142 144 145 148 149 151 154 155 155 154 153 151 151 149 148 147 145 143 142 143 143 143 144 145 142 135 126 116 107 110 122 126 124 125 125 143 142 139 136 135 134 134 134
148 152 150 150 149 147 153 160 157 157 157 155 155 154 149 139 138 144 151 152 151 152 152 152 150 145 131 112 113 114 113 123 127 129 138 152 150 145 143 142 142 141 140
160 162 161 157 155 156 162 153 153 155 153 149 149 147 140 142 154 155 164 161 159 161 163 165 164 156 125 102 103 106 107 127 128 143 159 160 156 152 150 149 148 148 148
164 165 166 165 163 165 156 153 154 148 147 149 154 151 149 151 159 153 154 161 162 167 168 177 174 154 134 130 125 126 133 134 144 159 167 166 163 160 157 156 156 156 155
165 168 165 166 168 168 158 161 159 157 160 165 169 166 157 155 159 161 162 165 168 170 181 189 195 209 196 165 152 147 149 146 153 154 173 172 170 167 165 164 164 165 164
167 168 167 169 172 168 161 168 166 167 171 172 171 174 166 164 167 169 174 180 188 185 185 194 202 188 171 160 161 155 154 155 159 162 171 177 175 174 173 173 174 174 174
172 168 169 172 173 169 168 173 169 173 172 170 171 177 172 166 165 168 175 181 191 189 186 184 181 173 155 151 150 154 156 159 165 163 168 180 181 181 183 183 184 183 184
172 167 170 170 169 170 172 176 171 173 170 172 173 173 170 166 168 169 170 180 188 178 167 155 151 132 131 124 135 151 157 165 167 170 171 177 185 191 190 190 190 191 193
166 165 170 171 169 170 170 169 164 168 168 171 167 165 165 164 164 162 164 173 170 152 145 145 135 119 116 122 139 161 159 166 171 174 174 179 182 192 199 198 197 198 200
167 166 168 167 169 172 167 161 158 160 166 166 161 160 161 162 161 157 161 163 155 145 150 157 130 134 137 145 165 171 171 173 173 179 184 186 188 192 194 206 205 205 208
164 166 167 167 169 166 157 149 147 153 163 160 159 163 160 160 160 155 157 158 149 143 147 138 129 123 137 156 170 151 191 193 182 188 190 187 193 197 197 202 201 212 214
161 165 169 167 168 164 159 161 159 164 166 164 168 165 159 160 161 158 160 156 152 157 163 153 135 129 129 128 93 42 349 297 214 207 197 184 197 200 193 198 195 199 214
167 168 169 170 169 171 170 164 161 155 160 165 167 167 166 167 169 170 162 164 159 153 153 154 138 132 153 143 129 109 27 339 307 229 204 197 201 195 197 202 197 201 208
173 175 174 176 174 171 161 146 138 126 124 143 169 177 177 175 177 172 168 164 163 160 166 171 157 152 162 180 151 148 154 211 272 303 235 212 196 194 205 202 202 205 206
178 176 173 174 173 170 163 163 166 171 179 187 176 177 178 179 179 176 172 167 165 164 168 179 169 159 151 169 200 196 174 162 157 260 307 263 214 205 205 208 205 205 203
172 172 171 170 172 171 172 174 176 180 184 168 161 171 179 183 185 184 177 172 170 169 176 175 162 164 161 164 173 175 155 123 137 151 232 279 281 237 212 208 204 205 203
171 172 171 173 179 177 175 178 179 180 177 169 174 179 183 185 188 188 179 176 175 173 178 182 178 173 173 168 168 167 163 164 183 167 193 228 244 258 231 215 210 208 206